User: anonymous   Login
Location: Caltech
(34.1382°N, 118.1253°W)
Time: 20:27:54
(UTC-08:00)
Language:

Cosmos 2333 Rocket - Orbit

View from above orbital plane
View from above orbital plane
View from above satellite
View from above satellite

Ground track
Ground track

The orbit data is extracted from the following two-line orbital elements,

1 24298U 96051B   16339.47319285  .00000136  00000-0  99690-4 0  9994
2 24298  70.8443 112.4477 0013750 122.3581 237.8872 14.12459633 44325
Epoch (UTC): 04 December 2016 11:21:23
Eccentricity: 0.0013750
inclination: 70.8443°
perigee height: 841 km
apogee height: 861 km
right ascension of ascending node: 112.4477°
argument of perigee: 122.3581°
revolutions per day: 14.12459633
mean anomaly at epoch: 237.8872°
orbit number at epoch: 4432

The dashed part of the orbit path shows where the satellite is in the earth's shadow,  

DLR